This is the latest recevied weather packets stored in our database for station/object SP9TWP-3. If no packets are shown the sender has not sent any weather packets the latest 10 day(s).
| Time | Temp. | Humidity | Pressure | Rain* | Wind** | Luminosity | Snow |
|---|---|---|---|---|---|---|---|
| 1777812390 | 28.89° C | 18% | 1016.1 hPa | - | - | - | - |
| 1777811490 | 27.22° C | 19% | 1016.3 hPa | - | - | - | - |
| 1777810590 | 27.78° C | 19% | 1016.3 hPa | - | - | - | - |
| 1777809690 | 27.22° C | 20% | 1016.5 hPa | - | - | - | - |
| 1777808790 | 26.67° C | 21% | 1016.6 hPa | - | - | - | - |
| 1777807890 | 27.22° C | 22% | 1016.7 hPa | - | - | - | - |
| 1777806989 | 25° C | 23% | 1016.8 hPa | - | - | - | - |
| 1777806089 | 25° C | 24% | 1017.1 hPa | - | - | - | - |
| 1777805189 | 25.56° C | 24% | 1017.2 hPa | - | - | - | - |
| 1777804289 | 24.44° C | 25% | 1017.3 hPa | - | - | - | - |
| 1777803468 | 23.89° C | 26% | 1017.5 hPa | - | - | - | - |
| 1777803389 | 23.89° C | 26% | 1017.5 hPa | - | - | - | - |
| 1777802489 | 23.33° C | 28% | 1017.6 hPa | - | - | - | - |
| 1777801588 | 23.33° C | 28% | 1017.7 hPa | - | - | - | - |
| 1777800688 | 23.33° C | 28% | 1017.9 hPa | - | - | - | - |
| 1777799788 | 22.78° C | 29% | 1018 hPa | - | - | - | - |
| 1777798888 | 22.22° C | 30% | 1018.2 hPa | - | - | - | - |
| 1777798026 | 22.22° C | 30% | 1018.4 hPa | - | - | - | - |
| 1777797988 | 22.22° C | 30% | 1018.4 hPa | - | - | - | - |
| 1777797088 | 21.67° C | 30% | 1018.4 hPa | - | - | - | - |
| 1777796187 | 21.67° C | 31% | 1018.4 hPa | - | - | - | - |
| 1777795287 | 21.67° C | 31% | 1018.4 hPa | - | - | - | - |
| 1777794387 | 20.56° C | 33% | 1018.4 hPa | - | - | - | - |
| 1777793487 | 20.56° C | 33% | 1018.4 hPa | - | - | - | - |
| 1777792587 | 20° C | 35% | 1018.3 hPa | - | - | - | - |
* Rain since midnight (hover to see other rain measurements)
** Current wind speed in m/s (hover to see current wind gust speed)